Prescott, AZ

10:14 AM MST on February 26, 2017 (GMT -0700)
Love

Weather History for KPRC - May, 2014

Change the Weather History Date:

Saturday, May 17, 2014

  Actual Average Record
Temperature  
Mean Temperature 71 °F 62 °F  
Max Temperature 87 °F 77 °F 90 °F (1997)
Min Temperature 54 °F 47 °F 33 °F (1981)
Degree Days  
Heating Degree Days 0    
Month to date heating degree days 102  
Since 1 July heating degree days 3775  
Cooling Degree Days 6    
Month to date cooling degree days 11  
Year to date cooling degree days 11  
Growing Degree Days 22 (Base 50)    
Moisture  
Dew Point 14 °F    
Average Humidity 12    
Maximum Humidity 23    
Minimum Humidity 5    
Precipitation  
Precipitation 0.00 in 0.02 in 0.17 in (1962)
Month to date precipitation T 0.25  
Year to date precipitation 0.97 4.33  
Sea Level Pressure  
Sea Level Pressure 29.79 in    
Wind  
Wind Speed 9 mph (SSW)    
Max Wind Speed 23 mph    
Max Gust Speed 31 mph    
Visibility 10 miles    
Events      
T = Trace of Precipitation, MM = Missing Value Source: NWS Daily Summary

Daily Weather History Graph

Daily Weather History Graph

Search for Another Location

Airport or City:

Trip Planner

Search our weather history database for the weather conditions in past years. The results will help you decide how hot, cold, wet, or windy it might be!

Date:

Astronomy

May. 17, 2014 Rise Set
Actual Time 5:25 AM MST 7:27 PM MST
Civil Twilight 4:57 AM MST 7:55 PM MST
Nautical Twilight 4:23 AM MST 8:29 PM MST
Astronomical Twilight 3:46 AM MST 9:06 PM MST
Moon 10:32 PM MST (5/17) 8:11 AM MST (5/17)
Length of Visible Light 14h 58m
Length of Day
14h 01m
Waning Gibbous, 88% of the Moon is Illuminated
May 17
Waning Gibbous
May 21
Last Quarter
May 28
New
Jun 5
First Quarter
Jun 12
Full

Hourly Weather History & Observations

Time (MST) Temp. Dew Point Humidity Pressure Visibility Wind Dir Wind Speed Gust Speed Precip Events Conditions
12:53 AM 59.0 °F 21.0 °F 23% 29.84 in 10.0 mi South 5.8 mph - N/A   Clear
1:53 AM 63.0 °F 12.9 °F 14% 29.82 in 10.0 mi South 5.8 mph - N/A   Clear
2:53 AM 61.0 °F 15.1 °F 17% 29.82 in 10.0 mi SSE 6.9 mph - N/A   Clear
3:53 AM 57.9 °F 17.1 °F 20% 29.83 in 10.0 mi Calm Calm - N/A   Clear
4:53 AM 61.0 °F 14.0 °F 16% 29.82 in 10.0 mi Calm Calm - N/A   Clear
5:53 AM 57.0 °F 19.0 °F 23% 29.84 in 10.0 mi SE 8.1 mph - N/A   Clear
6:53 AM 63.0 °F 23.0 °F 22% 29.84 in 10.0 mi South 9.2 mph - N/A   Clear
7:53 AM 73.9 °F 16.0 °F 11% 29.83 in 10.0 mi SSE 5.8 mph - N/A   Clear
8:53 AM 78.1 °F 15.1 °F 9% 29.82 in 10.0 mi Variable 6.9 mph - N/A   Clear
9:53 AM 82.9 °F 15.1 °F 8% 29.81 in 10.0 mi SSW 10.4 mph 16.1 mph N/A   Clear
10:53 AM 84.0 °F 15.1 °F 8% 29.81 in 10.0 mi SW 12.7 mph 19.6 mph N/A   Clear
11:53 AM 84.0 °F 12.9 °F 7% 29.81 in 10.0 mi SW 13.8 mph 23.0 mph N/A   Clear
12:53 PM 84.9 °F 15.1 °F 7% 29.80 in 10.0 mi South 16.1 mph 31.1 mph N/A   Clear
1:53 PM 87.1 °F 10.0 °F 6% 29.77 in 10.0 mi WSW 12.7 mph 24.2 mph N/A   Clear
2:53 PM 84.9 °F 10.9 °F 6% 29.77 in 10.0 mi WSW 17.3 mph 28.8 mph N/A   Clear
3:53 PM 84.0 °F 9.0 °F 6% 29.77 in 10.0 mi WSW 15.0 mph - N/A   Clear
4:53 PM 84.0 °F 8.1 °F 6% 29.75 in 10.0 mi SW 18.4 mph 24.2 mph N/A   Clear
5:53 PM 82.0 °F 7.0 °F 6% 29.76 in 10.0 mi SW 15.0 mph - N/A   Clear
6:53 PM 78.1 °F 8.1 °F 7% 29.75 in 10.0 mi SSW 10.4 mph - N/A   Clear
7:53 PM 73.9 °F 12.0 °F 9% 29.75 in 10.0 mi South 4.6 mph - N/A   Clear
8:53 PM 70.0 °F 18.0 °F 14% 29.76 in 10.0 mi SSE 3.5 mph - N/A   Clear
9:53 PM 66.9 °F 16.0 °F 14% 29.76 in 10.0 mi SSE 8.1 mph - N/A   Clear
10:53 PM 68.0 °F 14.0 °F 12% 29.75 in 10.0 mi SSE 9.2 mph - N/A   Clear
11:53 PM 68.0 °F 19.0 °F 15% 29.75 in 10.0 mi South 9.2 mph - N/A   Clear